This is the latest recevied weather packets stored in our database for station/object KC0MWM-2. If no packets are shown the sender has not sent any weather packets the latest 10 day(s).
| Time | Temp. | Humidity | Pressure | Rain* | Wind** | Luminosity | Snow |
|---|---|---|---|---|---|---|---|
| 1777282937 | 10° C | 100% | 1003.3 hPa | 0 mm | - | - | - |
| 1777279336 | 10.56° C | 100% | 1004.3 hPa | 0 mm | - | - | - |
| 1777278737 | 10.56° C | 100% | 1004.4 hPa | 0 mm | - | - | - |
| 1777275737 | 11.67° C | 100% | 1002.7 hPa | 0 mm | - | - | - |
| 1777272158 | 11.67° C | 100% | 1002.7 hPa | 2.03 mm | - | - | - |
| 1777270936 | 11.67° C | 100% | 1003.8 hPa | 2.29 mm | - | - | - |
| 1777269136 | 11.11° C | 100% | 1003.5 hPa | 2.03 mm | - | - | - |
| 1777267336 | 12.22° C | 100% | 1005.2 hPa | 0.25 mm | - | - | - |
| 1777264337 | 12.22° C | 100% | 1005.6 hPa | 0 mm | - | - | - |
| 1777260137 | 11.67° C | 100% | 1005.4 hPa | 0 mm | - | - | - |
| 1777258937 | 11.67° C | 100% | 1006.5 hPa | 0 mm | - | - | - |
| 1777258337 | 11.67° C | 100% | 1006.6 hPa | 0 mm | - | - | - |
| 1777252337 | 11.67° C | 100% | 1005.7 hPa | 0 mm | - | - | - |
| 1777251737 | 11.67° C | 100% | 1005.6 hPa | 0 mm | - | - | - |
| 1777248137 | 11.67° C | 100% | 1006.3 hPa | 0 mm | - | - | - |
| 1777244536 | 11.11° C | 100% | 1007 hPa | 0 mm | - | - | - |
| 1777242136 | 11.11° C | 100% | 1007.1 hPa | 0 mm | - | - | - |
| 1777232536 | 9.44° C | 99% | 1009.1 hPa | 0 mm | - | - | - |
| 1777231936 | 9.44° C | 99% | 1009.2 hPa | 0 mm | - | - | - |
| 1777230136 | 8.33° C | 99% | 1009.5 hPa | 0.51 mm | - | - | - |
| 1777225336 | 6.67° C | 99% | 1011.3 hPa | 0 mm | - | - | - |
| 1777222336 | 6.11° C | 99% | 1011.6 hPa | 0 mm | - | - | - |
| 1777216936 | 5.56° C | 99% | 1012.1 hPa | 0 mm | - | - | - |
| 1777212735 | 4.44° C | 99% | 1012.8 hPa | 1.02 mm | - | - | - |
| 1777209737 | 4.44° C | 99% | 1013.6 hPa | 1.02 mm | - | - | - |
* Rain latest hour (hover to see other rain measurements)
** Current wind speed in m/s (hover to see current wind gust speed)